Teterboro, NJ

8:27 AM EST on November 21, 2019 (GMT -0500)
Teterboro

Weather History for KTEB - September, 2019

Change the Weather History Date:

Thursday, September 12, 2019

  Actual Average Record
Temperature  
Mean Temperature 72 °F -  
Max Temperature 81 °F 77 °F 95 °F (2005)
Min Temperature 63 °F 58 °F 47 °F (1993)
Cooling Degree Days 7    
Growing Degree Days 22 (Base 50)    
Moisture  
Dew Point 66 °F    
Average Humidity 77    
Maximum Humidity 90    
Minimum Humidity 62    
Precipitation  
Precipitation 0.10 in - - ()
Sea Level Pressure  
Sea Level Pressure 30.09 in    
Wind  
Wind Speed 4 mph ()    
Max Wind Speed 12 mph    
Max Gust Speed 16 mph    
Visibility 8.8 miles    
Events Rain    
Averages and records for this station are not official NWS values.
T = Trace of Precipitation, MM = Missing Value Source: Averaged Metar Reports

Daily Weather History Graph

Daily Weather History Graph

Search for Another Location

Airport or City:

Astronomy

Sep. 12, 2019 Rise Set
Actual Time 6:33 AM EDT 7:10 PM EDT
Civil Twilight 6:06 AM EDT 7:38 PM EDT
Nautical Twilight 5:33 AM EDT 8:10 PM EDT
Astronomical Twilight 4:59 AM EDT 8:44 PM EDT
Moon 6:54 PM EDT (9/12) 4:49 AM EDT (9/12)
Length of Visible Light 13h 32m
Length of Day
12h 37m
Waxing Gibbous, 98% of the Moon is Illuminated
Sep 12
Waxing Gibbous
Sep 14
Full
Sep 21
Last Quarter
Sep 28
New
Oct 5
First Quarter

Hourly Weather History & Observations

Time (EDT) Temp. Heat Index Dew Point Humidity Pressure Visibility Wind Dir Wind Speed Gust Speed Precip Events Conditions
12:51 AM 80.1 °F 83.2 °F 70.0 °F 71% 30.00 in 10.0 mi Calm Calm - N/A   Partly Cloudy
1:51 AM 79.0 °F - 70.0 °F 74% 29.99 in 10.0 mi Calm Calm - N/A   Clear
2:51 AM 77.0 °F - 70.0 °F 79% 29.98 in 10.0 mi Calm Calm - N/A   Clear
3:51 AM 75.9 °F - 70.0 °F 82% 29.98 in 10.0 mi Calm Calm - N/A   Partly Cloudy
4:51 AM 75.9 °F - 71.1 °F 85% 29.99 in 10.0 mi WNW 3.5 mph - 0.00 in   Mostly Cloudy
6:51 AM 75.9 °F - 69.1 °F 79% 30.00 in 9.0 mi NNW 3.5 mph - 0.01 in Rain Rain
7:51 AM 75.9 °F - 70.0 °F 82% 30.02 in 10.0 mi NNW 5.8 mph - 0.00 in   Overcast
8:51 AM 77.0 °F - 70.0 °F 79% 30.03 in 10.0 mi North 6.9 mph - N/A   Scattered Clouds
9:03 AM 78.1 °F - 70.0 °F 76% 30.03 in 10.0 mi North 6.9 mph - N/A   Mostly Cloudy
9:15 AM 77.0 °F - 70.0 °F 79% 30.04 in 10.0 mi NE 6.9 mph - N/A   Mostly Cloudy
9:51 AM 80.1 °F 82.9 °F 69.1 °F 69% 30.04 in 10.0 mi NNE 6.9 mph - N/A   Mostly Cloudy
9:58 AM 80.1 °F 82.9 °F 69.1 °F 69% 30.04 in 10.0 mi NNE 6.9 mph - N/A   Scattered Clouds
10:51 AM 81.0 °F 83.3 °F 66.9 °F 62% 30.05 in 10.0 mi North 8.1 mph - N/A   Scattered Clouds
11:51 AM 80.1 °F 82.1 °F 66.0 °F 62% 30.05 in 10.0 mi Variable 3.5 mph - N/A   Overcast
12:51 PM 75.0 °F - 66.0 °F 73% 30.06 in 10.0 mi North 11.5 mph - N/A   Overcast
1:51 PM 77.0 °F - 66.0 °F 69% 30.06 in 10.0 mi NNE 9.2 mph - 0.00 in   Overcast
2:14 PM 75.0 °F - 66.0 °F 73% 30.06 in 10.0 mi East 6.9 mph - N/A   Overcast
2:51 PM 75.0 °F - 66.0 °F 73% 30.07 in 10.0 mi ENE 8.1 mph - N/A   Overcast
3:51 PM 73.9 °F - 64.9 °F 73% 30.08 in 10.0 mi ENE 6.9 mph - N/A   Overcast
4:51 PM 72.0 °F - 63.0 °F 73% 30.10 in 10.0 mi North 9.2 mph - N/A   Overcast
5:51 PM 71.1 °F - 62.1 °F 73% 30.12 in 10.0 mi North 11.5 mph - N/A   Overcast
6:51 PM 68.0 °F - 61.0 °F 78% 30.16 in 5.0 mi NNE 11.5 mph - 0.00 in   Overcast
7:51 PM 64.0 °F - 60.1 °F 87% 30.19 in 3.0 mi North 9.2 mph - 0.02 in Rain Light Rain
8:51 PM 63.0 °F - 60.1 °F 90% 30.23 in 3.0 mi NNE 10.4 mph - 0.02 in Rain Light Rain
9:17 PM 63.0 °F - 60.1 °F 90% 30.25 in 3.0 mi NE 8.1 mph - 0.04 in Rain Light Rain
9:51 PM 63.0 °F - 60.1 °F 90% 30.26 in 3.0 mi NE 6.9 mph 16.1 mph 0.05 in Rain Light Rain
10:51 PM 64.0 °F - 59.0 °F 84% 30.27 in 10.0 mi NE 5.8 mph - 0.00 in   Overcast
11:51 PM 64.0 °F - 57.0 °F 78% 30.28 in 10.0 mi NNE 5.8 mph - N/A   Overcast